This is the latest recevied weather packets stored in our database for station/object VE6EN. If no packets are shown the sender has not sent any weather packets the latest 10 day(s).
| Time | Temp. | Humidity | Pressure | Rain* | Wind** | Luminosity | Snow |
|---|---|---|---|---|---|---|---|
| 1787416804 | 16.67° C | 73% | 1016.9 hPa | 0 mm | - | - | - |
| 1787416204 | 16.67° C | 74% | 1017 hPa | 0 mm | - | - | - |
| 1787415603 | 16.67° C | 75% | 1017 hPa | 0 mm | - | - | - |
| 1787415000 | 16.67° C | 75% | 1017.2 hPa | 0 mm | - | - | - |
| 1787414404 | 16.11° C | 76% | 1017.2 hPa | 0 mm | - | - | - |
| 1787413803 | 15.56° C | 78% | 1017.1 hPa | 0 mm | - | - | - |
| 1787413206 | 15.56° C | 83% | 1017.1 hPa | 0 mm | - | - | - |
| 1787412604 | 15° C | 84% | 1017.3 hPa | 0 mm | - | - | - |
| 1787412012 | 15° C | 84% | 1017.3 hPa | 0 mm | - | - | - |
| 1787410803 | 14.44° C | 83% | 1017.4 hPa | 0 mm | - | - | - |
| 1787410208 | 14.44° C | 83% | 1017.3 hPa | 0 mm | - | - | - |
| 1787409604 | 13.89° C | 83% | 1017.4 hPa | 0 mm | - | - | - |
| 1787409003 | 13.89° C | 84% | 1017.6 hPa | 0 mm | - | - | - |
| 1787408404 | 13.89° C | 84% | 1017.5 hPa | 0 mm | - | - | - |
| 1787407800 | 13.89° C | 87% | 1017.5 hPa | 0 mm | - | - | - |
| 1787407205 | 13.33° C | 89% | 1017.3 hPa | 0 mm | - | - | - |
| 1787406604 | 12.78° C | 90% | 1017.1 hPa | 0 mm | - | - | - |
| 1787406011 | 12.78° C | 90% | 1017.3 hPa | 0 mm | - | - | - |
| 1787405405 | 12.22° C | 91% | 1017.3 hPa | 0 mm | - | - | - |
| 1787404805 | 12.22° C | 90% | 1017.3 hPa | 0 mm | - | - | - |
| 1787404207 | 12.22° C | 91% | 1017.3 hPa | 0 mm | - | - | - |
| 1787403604 | 12.22° C | 91% | 1017.1 hPa | 0 mm | - | - | - |
| 1787403006 | 12.22° C | 92% | 1017 hPa | 0 mm | - | - | - |
| 1787401804 | 12.78° C | 91% | 1017.1 hPa | 0 mm | - | - | - |
| 1787401203 | 12.78° C | 91% | 1017.3 hPa | 0 mm | - | - | - |
* Rain latest hour (hover to see other rain measurements)
** Current wind speed in m/s (hover to see current wind gust speed)